This is the latest recevied weather packets stored in our database for station/object KA8DUX-2. If no packets are shown the sender has not sent any weather packets the latest 10 day(s).
| Time | Temp. | Humidity | Pressure | Rain* | Wind** | Luminosity | Snow |
|---|---|---|---|---|---|---|---|
| 1777588332 | 9.44° C | 44% | 1013.4 hPa | 0 mm | - | 63 W/m² | - |
| 1777588029 | 10° C | 44% | 1013.3 hPa | 0 mm | - | 66 W/m² | - |
| 1777587724 | 10° C | 46% | 1013.6 hPa | 0 mm | - | 87 W/m² | - |
| 1777587418 | 10° C | 42% | 1013.6 hPa | 0 mm | - | 126 W/m² | - |
| 1777587115 | 10.56° C | 45% | 1013.7 hPa | 0 mm | - | 107 W/m² | - |
| 1777586811 | 10.56° C | 42% | 1013.4 hPa | 0 mm | - | 169 W/m² | - |
| 1777586507 | 10.56° C | 44% | 1013.5 hPa | 0 mm | - | 91 W/m² | - |
| 1777586202 | 10.56° C | 43% | 1013.5 hPa | 0 mm | - | 155 W/m² | - |
| 1777585899 | 11.11° C | 43% | 1013.4 hPa | 0 mm | - | 213 W/m² | - |
| 1777585594 | 11.11° C | 44% | 1013.7 hPa | 0 mm | - | 280 W/m² | - |
| 1777585290 | 10.56° C | 45% | 1013.5 hPa | 0 mm | - | 211 W/m² | - |
| 1777584985 | 10° C | 47% | 1013.6 hPa | 0 mm | - | 306 W/m² | - |
| 1777584682 | 10.56° C | 47% | 1013.5 hPa | 0 mm | - | 177 W/m² | - |
| 1777584379 | 10.56° C | 45% | 1013.6 hPa | 0 mm | - | 219 W/m² | - |
| 1777584075 | 10.56° C | 43% | 1013.7 hPa | 0 mm | - | 170 W/m² | - |
| 1777583770 | 10.56° C | 42% | 1013.6 hPa | 0 mm | - | 142 W/m² | - |
| 1777583469 | 10.56° C | 44% | 1013.7 hPa | 0 mm | - | 147 W/m² | - |
| 1777583164 | 11.11° C | 42% | 1013.7 hPa | 0 mm | - | 161 W/m² | - |
| 1777582859 | 11.11° C | 42% | 1013.6 hPa | 0 mm | - | 211 W/m² | - |
| 1777582556 | 11.67° C | 42% | 1013.6 hPa | 0 mm | - | 152 W/m² | - |
| 1777582251 | 11.67° C | 41% | 1013.5 hPa | 0 mm | - | 157 W/m² | - |
| 1777581949 | 11.67° C | 39% | 1013.7 hPa | 0 mm | - | 602 W/m² | - |
| 1777581644 | 11.67° C | 39% | 1013.9 hPa | 0 mm | - | 424 W/m² | - |
| 1777581339 | 12.22° C | 40% | 1014 hPa | 0 mm | - | 561 W/m² | - |
| 1777581034 | 12.22° C | 41% | 1013.9 hPa | 0 mm | - | 537 W/m² | - |
* Rain latest hour (hover to see other rain measurements)
** Current wind speed in m/s (hover to see current wind gust speed)